Location: Powder Track
(41.8531°N, 72.3584°W)
Time: 17:06:01
(UTC+00:00)

Transit 4A - Pass Details

Date: 08 August 2021
Orbit: 871 x 974 km, 66.8° (Epoch: 21 September)

Event Time Altitude Azimuth Distance (km) Brightness Sun altitude
Rises 11:59:22 0° 329° (NNW) 3,481 10.6 22.5°
Reaches altitude 10° 12:01:50 10° 329° (NNW) 2,548 10.0 22.9°
Maximum altitude 12:07:45 87° 244° (WSW) 903 8.3 24.0°
Drops below altitude 10° 12:13:47 10° 153° (SSE) 2,596 10.7 25.1°
Sets 12:16:19 0° 153° (SSE) 3,551 11.3 25.6°
